Regional Weather Roundup
Issued by NWS Kansas City/Pleasant Hill, MO

Home | Current Version | Previous Version | Graphics & Text | Print | Product List | Glossary Off
Versions: 1 2 3 4 5 6 7 8 9 10 11 12 13 14 15 16 17 18 19 20 21 22 23 24 25 26 27 28 29 30 31 32 33 34 35 36 37 38 39 40 41 42 43 44 45 46 47 48 49 50

000
ASUS43 KEAX 070510
RWREAX

WEATHER ROUNDUP FOR EASTERN KANSAS AND NORTHWEST MISSOURI
NATIONAL WEATHER SERVICE KANSAS CITY/PLEASANT HILL MO
1200 AM CDT TUE JUL 07 2015

KSZ040-057-103>105-MOZ028-029-037-043-070600-
...KANSAS CITY METROPOLITAN AREA...

CITY           SKY/WX    TMP DP  RH WIND       PRES   REMARKS
K.C. INTL      LGT RAIN  70  69  97 N16G24    29.94S FOG
K.C. DOWNTOWN  CLOUDY    73  72  96 CALM      29.93S
LEES SUMMIT    CLOUDY    72  69  90 N6        29.95R
OLATHE - IXD   CLOUDY    72  71  97 W6        29.96R
OLATHE - OJC   CLOUDY    71  70  96 W3        29.94R
LAWRENCE       LGT RAIN  70  67  90 N17G24    29.95R

$$

MOZ001>008-011>017-020>025-030>033-038>040-044>046-053-054-070600-
...NORTHERN AND CENTRAL MISSOURI...

CITY           SKY/WX    TMP DP  RH WIND       PRES   REMARKS
ST. JOSEPH     RAIN      66  65  96 MISG      29.98R FOG
MOSBY          CLOUDY    72  72 100 W3        29.93R
WARRENSBURG    DRIZZLE   70  70 100 W6        29.93S
WHITEMAN AFB   CLOUDY    72  71  97 SW5       29.92S
CLINTON        DRIZZLE   73  73 100 W6        29.95S
SEDALIA        CLOUDY    73  70  90 W3        29.94S
WARSAW         NOT AVBL
CHILLICOTHE      N/A     73  71  93 N5        29.92R
KIRKSVILLE     CLOUDY    72  69  90 N9        29.91R

$$

MOZ041-047>049-056>058-063>065-088>090-097-070600-
...EASTERN AND SOUTHERN MISSOURI...

CITY           SKY/WX    TMP DP  RH WIND       PRES   REMARKS
ST. LOUIS INTL CLOUDY    82  73  74 S8        29.90F
SPIRIT OF STL  CLOUDY    79  74  84 S8        29.88F
COLUMBIA       HVY RAIN  74  72  93 CALM      29.89F FOG
JEFFERSON CITY CLOUDY    80  72  76 S9        29.87S
ROLLA          CLOUDY    77  72  84 S16       29.92S
OSAGE BEACH    CLOUDY    79  70  73 SW5       29.90S
SPRINGFIELD    CLOUDY    77  72  84 S14       29.96S
BRANSON        CLOUDY    75  70  83 S3        30.01S
JOPLIN         RAIN      70  69  97 E5        29.96F
WEST PLAINS    CLOUDY    77  71  82 SW8       30.01S

$$

IAZ060-094-KSZ022-034>040-054-083-096-NEZ052-066-093-070600-
...KANSAS...SOUTHEAST NEBRASKA AND IOWA...

CITY           SKY/WX    TMP DP  RH WIND       PRES   REMARKS
TOPEKA         LGT RAIN  67  65  93 N14       29.97R FOG
MANHATTAN      CLOUDY    71  67  87 NE8       30.00R
EMPORIA        LGT RAIN  70  69  97 S5        29.97R FOG
CHANUTE        LGT RAIN  72  71  97 CALM      29.95R
WICHITA        LGT RAIN  73  71  93 NE7       29.96S FOG
OMAHA          CLOUDY    67  60  78 N12       30.06R HAZE
LINCOLN        CLOUDY    65  60  84 N10       30.08R HAZE
FALLS CITY     CLOUDY    69  61  75 N8        30.00R HAZE
LAMONI         CLOUDY    67  62  84 N12       29.98R HAZE
DES MOINES     CLOUDY    67  59  75 N7        29.99R HAZE

$$




USA.gov is the U.S. government's official web portal to all federal, state and local government web resources and services.